Regional Weather Roundup
Issued by NWS

Home | Current Version | Previous Version | Text Only | Print | Product List | Glossary Off
Versions: 1 2 3 4 5 6 7 8 9 10 11 12 13 14 15 16 17 18 19 20 21 22 23 24 25 26 27 28 29

000
ASUS45 KGTF 031610
RWRMT
MONTANA HOURLY WEATHER ROUNDUP
NATIONAL WEATHER SERVICE GREAT FALLS MT
1000 AM MDT SUN MAY 03 2015

NOTE: "FAIR" INDICATES FEW OR NO CLOUDS BELOW 12000 FEET WITH NO
SIGNIFICANT WEATHER AND/OR OBSTRUCTIONS TO VISIBILITY.

MTZ001>007-043-031700-
WEST OF THE DIVIDE

CITY           SKY/WX    TMP DP  RH WIND       PRES   REMARKS
KALISPELL      SUNNY     51  24  34 NE5       30.03R
MISSOULA       SUNNY     46  25  43 CALM      30.02F
BUTTE          SUNNY     46  21  37 N3        30.01S
DEER LODGE       N/A     46  28  49 CALM      30.04F
EUREKA           N/A     45  21  39 N3          N/A
HAMILTON         N/A     48  21  34 N3        30.00S
LIBBY            N/A     45  25  45 CALM      30.06F
$$

MTZ008-052>055-031700-
SOUTHWEST MONTANA

CITY           SKY/WX    TMP DP  RH WIND       PRES   REMARKS
BOZEMAN        SUNNY     50  34  54 CALM      30.01F
DILLON         SUNNY     50  29  44 N10       29.99S
$$

MTZ009-010-012-014-046-048-049-054-031700-
EAST SLOPES AND CENTRAL MONTANA

CITY           SKY/WX    TMP DP  RH WIND       PRES   REMARKS
CUT BANK       SUNNY     48  27  44 SE13      30.02S
GREAT FALLS    SUNNY     49  27  42 NE7       30.02F
MALMSTROM AFB  SUNNY     49  27  43 NE5       30.03F
HELENA         SUNNY     49  29  46 NE3       30.02S
$$

MTZ011-013-016-021-045-047-050-051-031700-
NORTH CENTRAL MONTANA

CITY           SKY/WX    TMP DP  RH WIND       PRES   REMARKS
HAVRE          MOSUNNY   52  25  35 E8        30.05F
LEWISTOWN      SUNNY     51  24  34 NE6       30.04S
CHINOOK          N/A     52  27  37 N3        30.07S
FORT BENTON      N/A     52  28  40 N5        30.04F
$$

MTZ017>020-022>042-056>058-061-062-031700-
EASTERN PLAINS

CITY           SKY/WX    TMP DP  RH WIND       PRES   REMARKS
BAKER          MOSUNNY   55  32  41 N8        30.03R
BILLINGS       PTSUNNY   51  32  48 NE14      30.05S
GLASGOW        CLOUDY    51  29  42 NW8       30.06R
JORDAN           N/A     55  22  27 N5        30.05S
LIVINGSTON     SUNNY     51  34  52 E14       30.02F
MILES CITY     CLOUDY    55  33  43 N7        30.05S
SIDNEY         SUNNY     54  30  40 CALM      30.05S
WOLF POINT     SUNNY     57  27  31 NW10      30.06R
BIG TIMBER       N/A     48  34  57 E10       30.04F
FORSYTH          N/A     54  34  47 E7        30.06S
PLENTYWOOD       N/A     50  28  43 NW21      30.02S
POPLAR           N/A     54  27  35 NW6       30.06R
$$

REGIONAL REPORTS...DAKOTAS

CITY           SKY/WX    TMP DP  RH WIND       PRES   REMARKS
WILLISTON      SUNNY     56  28  34 NW12      30.03R
MINOT          SUNNY     57  27  31 NW20      29.97R
DICKINSON      MOSUNNY   56  26  31 N10G17    30.00R
BEACH          CLOUDY    54  25  32 N12       30.04S
CROSBY         FAIR      52  30  43 NW21G26   30.01S
WATFORD CITY   FAIR      55  28  35 W10       30.01R
BISMARCK       CLOUDY    56  33  42 N12       29.99R
GRAND FORKS    CLOUDY    57  38  48 NW17G23   29.89R
FARGO          PTSUNNY   62  39  42 N22G29    29.86S
BUFFALO SD       N/A     57  35  43 NE14      29.94R
RAPID CITY     SUNNY     60  38  43 N20G26    29.99R
$$

REGIONAL REPORTS...WYOMING/IDAHO/WASHINGTON

CITY           SKY/WX    TMP DP  RH WIND       PRES   REMARKS
GILLETTE       SUNNY     58  35  42 NE14      30.01R
SHERIDAN       MOSUNNY   54  37  52 E7        30.03F
BUFFALO WY     CLOUDY    52  38  58 N10       30.04S
CODY           SUNNY     50  34  53 N14       30.00F
YELLOWSTONE LA   N/A     43  27  53 VRB3      30.06F
IDAHO FALLS    PTSUNNY   61  36  39 SW7       29.96R
SALMON         SUNNY     48  30  49 CALM      29.96F
BOISE          MOSUNNY   58  34  40 W5        29.90R
SPOKANE        MOSUNNY   51  26  37 E8        30.00S
$$

REGIONAL REPORTS...ALBERTA

CITY           SKY/WX    TMP DP  RH WIND       PRES   REMARKS
EDMONTON       MOSUNNY   45  37  76 W3        30.04S
LETHBRIDGE     PTSUNNY   45  30  57 NE7       30.06S
MEDICINE HAT   PTSUNNY   48  30  49 NE6       30.08S
$$

REGIONAL REPORTS...SASKATCHEWAN

CITY           SKY/WX    TMP DP  RH WIND       PRES   REMARKS
SWIFT CURRENT  MOSUNNY   46  32  57 NW13      30.05R
REGINA         MOSUNNY   48  37  66 NW15G25   30.00R
SASKATOON      MOSUNNY   48  36  61 W9        30.02R
$$



USA.gov is the U.S. government's official web portal to all federal, state and local government web resources and services.